Time,TemperatureF,DewpointF,PressureIn,WindDirection,WindDirectionDegrees,WindSpeedMPH,WindSpeedGustMPH,Humidity,HourlyPrecipIn,Conditions,Clouds,dailyrainin,SoftwareType,DateUTC
2013-03-07 00:33:00,35.3,22.8,30.76,NW,307,0.0,0.0,60,0.00,,---,0.00,VWS V14.00,2013-03-07 05:33:00,
2013-03-07 00:39:00,35.3,22.4,30.76,NW,307,0.0,0.0,59,0.00,,---,0.00,VWS V14.00,2013-03-07 05:39:00,
2013-03-07 00:44:00,35.3,22.8,30.76,NW,307,0.0,0.0,60,0.00,,---,0.00,VWS V14.00,2013-03-07 05:44:00,
2013-03-07 00:49:00,35.1,23.1,30.76,NW,307,0.0,0.0,61,0.00,,---,0.00,VWS V14.00,2013-03-07 05:49:00,
2013-03-07 00:54:00,35.0,23.3,30.76,NW,307,0.0,0.0,62,0.00,,---,0.00,VWS V14.00,2013-03-07 05:54:00,
2013-03-07 00:59:00,34.8,23.5,30.73,NW,307,0.0,0.0,63,0.00,,---,0.00,VWS V14.00,2013-03-07 05:59:00,
2013-03-07 01:04:00,35.0,23.7,30.73,NW,307,0.0,0.0,63,0.00,,---,0.00,VWS V14.00,2013-03-07 06:04:00,
2013-03-07 01:10:00,35.0,24.0,30.73,NW,307,0.0,0.0,64,0.00,,---,0.00,VWS V14.00,2013-03-07 06:10:00,
2013-03-07 01:15:00,34.8,23.9,30.76,NW,307,0.0,0.0,64,0.00,,---,0.00,VWS V14.00,2013-03-07 06:15:00,
2013-03-07 01:20:00,34.6,23.7,30.76,NW,307,0.0,0.0,64,0.00,,---,0.00,VWS V14.00,2013-03-07 06:20:00,
2013-03-07 01:25:00,34.6,23.7,30.76,NW,307,0.0,0.0,64,0.00,,---,0.00,VWS V14.00,2013-03-07 06:25:00,
2013-03-07 01:30:00,34.8,23.9,30.76,NW,307,0.0,0.0,64,0.00,,---,0.00,VWS V14.00,2013-03-07 06:30:00,
2013-03-07 01:35:00,34.6,23.7,30.76,NW,306,0.0,0.0,64,0.00,,---,0.00,VWS V14.00,2013-03-07 06:35:00,
2013-03-07 01:40:00,34.1,24.3,30.76,NW,307,0.0,0.0,67,0.00,,---,0.00,VWS V14.00,2013-03-07 06:40:00,
2013-03-07 01:45:00,33.5,23.8,30.76,NW,307,0.0,0.0,67,0.00,,---,0.00,VWS V14.00,2013-03-07 06:45:00,
2013-03-07 01:50:00,33.2,24.1,30.76,NW,306,0.0,0.0,69,0.00,,---,0.00,VWS V14.00,2013-03-07 06:50:00,
2013-03-07 01:55:00,33.0,24.3,30.76,NW,307,0.0,0.0,70,0.00,,---,0.00,VWS V14.00,2013-03-07 06:55:00,
2013-03-07 02:00:00,33.0,24.6,30.76,NW,307,0.0,0.0,71,0.00,,---,0.00,VWS V14.00,2013-03-07 07:00:00,
2013-03-07 02:06:00,33.2,24.8,30.76,NW,307,0.0,0.0,71,0.00,,---,0.00,VWS V14.00,2013-03-07 07:06:00,
2013-03-07 02:11:00,32.8,24.8,30.76,NW,307,0.0,0.0,72,0.00,,---,0.00,VWS V14.00,2013-03-07 07:11:00,
2013-03-07 02:16:00,32.8,25.1,30.76,NW,307,0.0,0.0,73,0.00,,---,0.00,VWS V14.00,2013-03-07 07:16:00,
2013-03-07 02:21:00,32.8,25.8,30.76,NW,306,0.0,0.0,75,0.00,,---,0.00,VWS V14.00,2013-03-07 07:21:00,
2013-03-07 02:26:00,33.0,26.2,30.76,NW,307,0.0,0.0,76,0.00,,---,0.00,VWS V14.00,2013-03-07 07:26:00,
2013-03-07 02:31:00,33.2,26.8,30.76,NW,307,0.0,0.0,77,0.00,,---,0.00,VWS V14.00,2013-03-07 07:31:00,
2013-03-07 02:36:00,33.3,26.9,30.76,NW,307,0.0,0.0,77,0.00,,---,0.00,VWS V14.00,2013-03-07 07:36:00,
2013-03-07 02:41:00,33.3,27.2,30.76,NW,307,0.0,0.0,78,0.00,,---,0.00,VWS V14.00,2013-03-07 07:41:00,
2013-03-07 02:47:00,33.7,27.9,30.76,NW,307,0.0,0.0,79,0.00,,---,0.00,VWS V14.00,2013-03-07 07:47:00,
2013-03-07 02:52:00,33.9,28.1,30.76,NW,307,0.0,0.0,79,0.00,,---,0.00,VWS V14.00,2013-03-07 07:52:00,
2013-03-07 02:57:00,34.1,28.5,30.76,NW,307,0.0,0.0,80,0.00,,---,0.00,VWS V14.00,2013-03-07 07:57:00,
2013-03-07 03:02:00,33.9,28.4,30.76,NW,307,0.0,0.0,80,0.00,,---,0.00,VWS V14.00,2013-03-07 08:02:00,
2013-03-07 03:07:00,33.9,28.7,30.76,NW,307,0.0,0.0,81,0.00,,---,0.00,VWS V14.00,2013-03-07 08:07:00,
2013-03-07 03:13:00,33.9,28.7,30.76,NW,307,0.0,0.0,81,0.00,,---,0.00,VWS V14.00,2013-03-07 08:13:00,
2013-03-07 03:18:00,33.9,28.7,30.76,NW,307,0.0,0.0,81,0.00,,---,0.00,VWS V14.00,2013-03-07 08:18:00,
2013-03-07 03:23:00,33.9,28.7,30.76,NW,307,0.0,0.0,81,0.00,,---,0.00,VWS V14.00,2013-03-07 08:23:00,
2013-03-07 03:28:00,33.9,28.7,30.76,NW,307,0.0,0.0,81,0.00,,---,0.00,VWS V14.00,2013-03-07 08:28:00,
2013-03-07 03:34:00,33.7,28.5,30.76,NW,307,0.0,0.0,81,0.00,,---,0.00,VWS V14.00,2013-03-07 08:34:00,
2013-03-07 03:39:00,33.7,28.5,30.76,NW,307,0.0,0.0,81,0.00,,---,0.00,VWS V14.00,2013-03-07 08:39:00,
2013-03-07 03:44:00,33.9,29.0,30.76,NW,304,0.0,0.0,82,0.00,,---,0.00,VWS V14.00,2013-03-07 08:44:00,
2013-03-07 03:49:00,33.9,29.0,30.76,NW,307,0.0,0.0,82,0.00,,---,0.00,VWS V14.00,2013-03-07 08:49:00,
2013-03-07 03:54:00,33.9,29.0,30.76,NW,307,0.0,0.0,82,0.00,,---,0.00,VWS V14.00,2013-03-07 08:54:00,
2013-03-07 03:59:00,33.9,29.0,30.76,NW,305,0.0,0.0,82,0.00,,---,0.00,VWS V14.00,2013-03-07 08:59:00,
2013-03-07 04:05:00,33.7,28.8,30.76,NW,307,0.0,0.0,82,0.00,,---,0.00,VWS V14.00,2013-03-07 09:05:00,
2013-03-07 04:10:00,33.9,29.0,30.76,North,1,0.0,0.0,82,0.00,,---,0.00,VWS V14.00,2013-03-07 09:10:00,
2013-03-07 04:15:00,33.7,28.8,30.76,NNE,27,0.0,0.0,82,0.00,,---,0.00,VWS V14.00,2013-03-07 09:15:00,
2013-03-07 04:20:00,33.9,29.0,30.76,NE,47,0.0,0.0,82,0.00,,---,0.00,VWS V14.00,2013-03-07 09:20:00,
2013-03-07 04:25:00,34.1,28.2,30.76,NE,47,0.0,0.0,79,0.00,,---,0.00,VWS V14.00,2013-03-07 09:25:00,
2013-03-07 04:31:00,34.1,27.9,30.76,NE,47,0.0,0.0,78,0.00,,---,0.00,VWS V14.00,2013-03-07 09:31:00,
2013-03-07 04:36:00,34.1,27.9,30.76,NE,47,0.0,0.0,78,0.00,,---,0.00,VWS V14.00,2013-03-07 09:36:00,
2013-03-07 04:41:00,34.1,27.9,30.76,NE,47,0.0,0.0,78,0.00,,---,0.00,VWS V14.00,2013-03-07 09:41:00,
2013-03-07 04:46:00,34.1,27.9,30.79,NE,47,0.0,0.0,78,0.00,,---,0.00,VWS V14.00,2013-03-07 09:46:00,
2013-03-07 04:51:00,34.1,27.9,30.79,NE,47,0.0,0.0,78,0.00,,---,0.00,VWS V14.00,2013-03-07 09:51:00,
2013-03-07 04:57:00,34.1,27.6,30.79,NE,47,0.0,0.0,77,0.00,,---,0.00,VWS V14.00,2013-03-07 09:57:00,
2013-03-07 05:02:00,34.1,27.9,30.76,NE,47,0.0,0.0,78,0.00,,---,0.00,VWS V14.00,2013-03-07 10:02:00,
2013-03-07 05:07:00,34.1,28.2,30.76,NE,47,0.0,0.0,79,0.00,,---,0.00,VWS V14.00,2013-03-07 10:07:00,
2013-03-07 05:12:00,34.2,28.1,30.79,NE,47,0.0,0.0,78,0.00,,---,0.00,VWS V14.00,2013-03-07 10:12:00,
2013-03-07 05:18:00,34.4,28.0,30.79,NE,47,0.0,0.0,77,0.00,,---,0.00,VWS V14.00,2013-03-07 10:18:00,
2013-03-07 05:23:00,34.6,27.8,30.79,NE,47,0.0,0.0,76,0.00,,---,0.00,VWS V14.00,2013-03-07 10:23:00,
2013-03-07 05:28:00,34.6,27.5,30.79,NE,47,0.0,0.0,75,0.00,,---,0.00,VWS V14.00,2013-03-07 10:28:00,
2013-03-07 05:33:00,34.4,27.6,30.79,NE,47,0.0,0.0,76,0.00,,---,0.00,VWS V14.00,2013-03-07 10:33:00,
2013-03-07 05:38:00,34.4,27.6,30.79,NE,47,0.0,0.0,76,0.00,,---,0.00,VWS V14.00,2013-03-07 10:38:00,
2013-03-07 05:43:00,34.2,28.1,30.79,NE,52,0.0,0.0,78,0.00,,---,0.00,VWS V14.00,2013-03-07 10:43:00,
2013-03-07 05:49:00,34.4,28.3,30.79,NE,48,0.0,0.0,78,0.00,,---,0.00,VWS V14.00,2013-03-07 10:49:00,
2013-03-07 05:54:00,34.6,28.1,30.79,ENE,62,0.0,0.0,77,0.00,,---,0.00,VWS V14.00,2013-03-07 10:54:00,
2013-03-07 05:59:00,34.8,28.0,30.79,ENE,62,0.0,0.0,76,0.00,,---,0.00,VWS V14.00,2013-03-07 10:59:00,
2013-03-07 06:04:00,34.8,27.7,30.79,ENE,62,0.0,0.0,75,0.00,,---,0.00,VWS V14.00,2013-03-07 11:04:00,
2013-03-07 06:09:00,34.8,27.7,30.79,ENE,62,0.0,0.0,75,0.00,,---,0.00,VWS V14.00,2013-03-07 11:09:00,
2013-03-07 06:15:00,34.8,27.4,30.79,ENE,62,0.0,0.0,74,0.00,,---,0.00,VWS V14.00,2013-03-07 11:15:00,
2013-03-07 06:20:00,35.0,27.5,30.79,ENE,62,0.0,0.0,74,0.00,,---,0.00,VWS V14.00,2013-03-07 11:20:00,
2013-03-07 06:25:00,35.0,27.5,30.79,ENE,62,0.0,0.0,74,0.00,,---,0.00,VWS V14.00,2013-03-07 11:25:00,
2013-03-07 06:30:00,35.0,27.2,30.79,ENE,62,0.0,0.0,73,0.00,,---,0.00,VWS V14.00,2013-03-07 11:30:00,
2013-03-07 06:35:00,35.1,27.4,30.79,ENE,62,0.0,0.0,73,0.00,,---,0.00,VWS V14.00,2013-03-07 11:35:00,
2013-03-07 06:40:00,35.1,27.4,30.79,ENE,63,0.0,0.0,73,0.00,,---,0.00,VWS V14.00,2013-03-07 11:40:00,
2013-03-07 06:45:00,35.1,27.4,30.79,ENE,62,0.0,0.0,73,0.00,,---,0.00,VWS V14.00,2013-03-07 11:45:00,
2013-03-07 06:50:00,35.1,27.4,30.79,ENE,62,0.0,0.0,73,0.00,,---,0.00,VWS V14.00,2013-03-07 11:50:00,
2013-03-07 06:56:00,35.0,27.5,30.79,ENE,62,0.0,0.0,74,0.00,,---,0.00,VWS V14.00,2013-03-07 11:56:00,
2013-03-07 07:01:00,35.0,27.5,30.79,ENE,62,0.0,0.0,74,0.00,,---,0.00,VWS V14.00,2013-03-07 12:01:00,
2013-03-07 07:06:00,35.0,27.5,30.79,NE,46,0.0,4.0,74,0.00,,---,0.00,VWS V14.00,2013-03-07 12:06:00,
2013-03-07 07:11:00,34.8,27.4,30.79,NE,46,0.0,0.0,74,0.00,,---,0.00,VWS V14.00,2013-03-07 12:11:00,
2013-03-07 07:17:00,34.8,27.7,30.79,NE,52,4.0,5.8,75,0.00,,---,0.00,VWS V14.00,2013-03-07 12:17:00,
2013-03-07 07:22:00,34.8,27.7,30.79,NE,53,0.0,2.2,75,0.00,,---,0.00,VWS V14.00,2013-03-07 12:22:00,
2013-03-07 07:27:00,34.8,27.7,30.79,NE,50,3.1,4.0,75,0.00,,---,0.00,VWS V14.00,2013-03-07 12:27:00,
2013-03-07 07:33:00,34.8,27.7,30.79,ENE,59,2.2,2.7,75,0.00,,---,0.00,VWS V14.00,2013-03-07 12:33:00,
2013-03-07 07:38:00,35.1,27.7,30.79,ENE,59,3.1,3.1,74,0.00,,---,0.00,VWS V14.00,2013-03-07 12:38:00,
2013-03-07 07:43:00,35.1,27.7,30.82,ENE,59,0.0,0.0,74,0.00,,---,0.00,VWS V14.00,2013-03-07 12:43:00,
2013-03-07 07:48:00,35.1,27.7,30.82,ENE,59,0.0,0.0,74,0.00,,---,0.00,VWS V14.00,2013-03-07 12:48:00,
2013-03-07 07:53:00,35.1,27.4,30.82,ENE,59,0.0,0.0,73,0.00,,---,0.00,VWS V14.00,2013-03-07 12:53:00,
2013-03-07 07:58:00,35.3,27.5,30.82,ENE,59,0.0,0.0,73,0.00,,---,0.00,VWS V14.00,2013-03-07 12:58:00,
2013-03-07 08:04:00,35.3,27.5,30.82,ENE,59,0.0,0.0,73,0.00,,---,0.00,VWS V14.00,2013-03-07 13:04:00,
2013-03-07 08:09:00,35.7,27.9,30.82,ENE,59,0.0,0.0,73,0.00,,---,0.00,VWS V14.00,2013-03-07 13:09:00,
2013-03-07 08:14:00,35.9,27.4,30.82,ENE,59,0.0,3.1,71,0.00,,---,0.00,VWS V14.00,2013-03-07 13:14:00,
2013-03-07 08:19:00,36.0,27.2,30.82,ENE,59,0.0,3.1,70,0.00,,---,0.00,VWS V14.00,2013-03-07 13:19:00,
2013-03-07 08:25:00,36.4,26.9,30.82,ENE,59,0.0,0.0,68,0.00,,---,0.00,VWS V14.00,2013-03-07 13:25:00,
2013-03-07 08:30:00,36.6,26.7,30.82,ENE,59,0.0,0.0,67,0.00,,---,0.00,VWS V14.00,2013-03-07 13:30:00,
2013-03-07 08:35:00,36.8,26.1,30.82,ENE,59,0.0,0.0,65,0.00,,---,0.00,VWS V14.00,2013-03-07 13:35:00,
2013-03-07 08:40:00,36.9,25.9,30.82,ENE,59,0.0,0.0,64,0.00,,---,0.00,VWS V14.00,2013-03-07 13:40:00,
2013-03-07 08:45:00,37.1,25.7,30.82,ENE,59,0.0,0.0,63,0.00,,---,0.00,VWS V14.00,2013-03-07 13:45:00,
2013-03-07 08:50:00,37.7,25.8,30.82,ENE,59,0.0,0.0,62,0.00,,---,0.00,VWS V14.00,2013-03-07 13:50:00,
2013-03-07 08:56:00,38.0,25.8,30.82,ENE,59,0.0,0.0,61,0.00,,---,0.00,VWS V14.00,2013-03-07 13:56:00,
2013-03-07 09:01:00,38.7,25.7,30.82,ENE,59,0.0,0.0,59,0.00,,---,0.00,VWS V14.00,2013-03-07 14:01:00,
2013-03-07 09:06:00,39.5,25.5,30.82,NE,55,0.0,0.0,57,0.00,,---,0.00,VWS V14.00,2013-03-07 14:06:00,
2013-03-07 09:11:00,39.5,23.8,30.82,NE,55,0.0,0.0,53,0.00,,---,0.00,VWS V14.00,2013-03-07 14:11:00,
2013-03-07 09:16:00,39.5,23.8,30.82,WSW,254,0.0,4.0,53,0.00,,---,0.00,VWS V14.00,2013-03-07 14:16:00,
2013-03-07 09:21:00,39.3,24.0,30.82,NE,54,0.0,0.0,54,0.00,,---,0.00,VWS V14.00,2013-03-07 14:21:00,
2013-03-07 09:26:00,39.1,23.9,30.82,NW,319,0.0,0.0,54,0.00,,---,0.00,VWS V14.00,2013-03-07 14:26:00,
2013-03-07 09:32:00,38.7,23.5,30.82,WNW,292,0.0,0.0,54,0.00,,---,0.00,VWS V14.00,2013-03-07 14:32:00,
2013-03-07 09:37:00,38.7,24.0,30.82,WNW,292,0.0,0.0,55,0.00,,---,0.00,VWS V14.00,2013-03-07 14:37:00,
2013-03-07 09:42:00,38.7,23.5,30.82,NW,304,0.0,2.7,54,0.00,,---,0.00,VWS V14.00,2013-03-07 14:42:00,
2013-03-07 09:47:00,38.9,23.7,30.82,SSW,193,0.0,2.7,54,0.00,,---,0.00,VWS V14.00,2013-03-07 14:47:00,
2013-03-07 09:52:00,39.5,21.4,30.82,NW,315,0.0,3.6,48,0.00,,---,0.00,VWS V14.00,2013-03-07 14:52:00,
2013-03-07 09:57:00,39.8,20.7,30.82,South,173,0.0,3.6,46,0.00,,---,0.00,VWS V14.00,2013-03-07 14:57:00,
2013-03-07 10:03:00,40.2,21.1,30.82,WNW,295,3.6,3.6,46,0.00,,---,0.00,VWS V14.00,2013-03-07 15:03:00,
2013-03-07 10:08:00,40.5,20.9,30.82,WSW,246,0.0,3.6,45,0.00,,---,0.00,VWS V14.00,2013-03-07 15:08:00,
2013-03-07 10:13:00,40.9,20.1,30.82,SW,215,0.0,2.2,43,0.00,,---,0.00,VWS V14.00,2013-03-07 15:13:00,
2013-03-07 10:18:00,41.4,21.2,30.82,SW,214,0.0,2.2,44,0.00,,---,0.00,VWS V14.00,2013-03-07 15:18:00,
2013-03-07 10:23:00,41.6,20.2,30.82,NW,307,0.0,4.0,42,0.00,,---,0.00,VWS V14.00,2013-03-07 15:23:00,
2013-03-07 10:29:00,41.8,19.8,30.85,WNW,290,0.0,4.0,41,0.00,,---,0.00,VWS V14.00,2013-03-07 15:29:00,
2013-03-07 10:34:00,42.3,20.3,30.85,South,186,0.0,0.0,41,0.00,,---,0.00,VWS V14.00,2013-03-07 15:34:00,
2013-03-07 10:39:00,42.9,20.8,30.85,South,184,0.0,0.0,41,0.00,,---,0.00,VWS V14.00,2013-03-07 15:39:00,
2013-03-07 10:44:00,43.1,20.4,30.82,NW,316,3.1,3.1,40,0.00,,---,0.00,VWS V14.00,2013-03-07 15:44:00,
2013-03-07 10:50:00,43.4,20.7,30.82,WNW,295,0.0,3.6,40,0.00,,---,0.00,VWS V14.00,2013-03-07 15:50:00,
2013-03-07 10:55:00,43.4,20.7,30.82,WNW,290,0.0,5.4,40,0.00,,---,0.00,VWS V14.00,2013-03-07 15:55:00,
2013-03-07 11:00:00,43.8,20.5,30.82,WNW,287,0.0,5.4,39,0.00,,---,0.00,VWS V14.00,2013-03-07 16:00:00,
2013-03-07 11:05:00,44.3,20.9,30.82,WNW,287,0.0,0.0,39,0.00,,---,0.00,VWS V14.00,2013-03-07 16:05:00,
2013-03-07 11:10:00,45.0,21.6,30.82,SSE,157,0.0,0.0,39,0.00,,---,0.00,VWS V14.00,2013-03-07 16:10:00,
2013-03-07 11:16:00,45.6,21.5,30.82,SSE,157,0.0,0.0,38,0.00,,---,0.00,VWS V14.00,2013-03-07 16:16:00,
2013-03-07 11:21:00,45.4,20.7,30.82,WNW,302,0.0,0.0,37,0.00,,---,0.00,VWS V14.00,2013-03-07 16:21:00,
2013-03-07 11:26:00,45.0,21.0,30.82,NW,307,2.7,4.9,38,0.00,,---,0.00,VWS V14.00,2013-03-07 16:26:00,
2013-03-07 11:31:00,45.0,21.0,30.85,SE,141,0.0,0.0,38,0.00,,---,0.00,VWS V14.00,2013-03-07 16:31:00,
2013-03-07 11:37:00,45.6,20.8,30.85,WNW,300,0.0,0.0,37,0.00,,---,0.00,VWS V14.00,2013-03-07 16:37:00,
2013-03-07 11:42:00,45.8,21.0,30.85,West,279,0.0,0.0,37,0.00,,---,0.00,VWS V14.00,2013-03-07 16:42:00,
2013-03-07 11:47:00,45.8,20.4,30.85,NW,307,0.0,4.0,36,0.00,,---,0.00,VWS V14.00,2013-03-07 16:47:00,
2013-03-07 11:52:00,46.3,21.5,30.85,NW,308,0.0,0.0,37,0.00,,---,0.00,VWS V14.00,2013-03-07 16:52:00,
2013-03-07 11:57:00,46.5,20.3,30.85,NW,311,0.0,4.0,35,0.00,,---,0.00,VWS V14.00,2013-03-07 16:57:00,
2013-03-07 12:02:00,46.5,19.6,30.82,NW,319,2.2,2.2,34,0.00,,---,0.00,VWS V14.00,2013-03-07 17:02:00,
2013-03-07 12:08:00,46.7,21.1,30.82,SE,146,0.0,4.0,36,0.00,,---,0.00,VWS V14.00,2013-03-07 17:08:00,
2013-03-07 12:13:00,47.4,19.0,30.82,South,181,0.0,0.0,32,0.00,,---,0.00,VWS V14.00,2013-03-07 17:13:00,
2013-03-07 12:18:00,47.7,20.8,30.82,SSE,147,0.0,0.0,34,0.00,,---,0.00,VWS V14.00,2013-03-07 17:18:00,
2013-03-07 12:23:00,48.5,20.7,30.82,SSE,148,0.0,0.0,33,0.00,,---,0.00,VWS V14.00,2013-03-07 17:23:00,
2013-03-07 12:29:00,48.8,21.7,30.82,SE,140,0.0,0.0,34,0.00,,---,0.00,VWS V14.00,2013-03-07 17:29:00,
2013-03-07 12:34:00,49.2,20.6,30.82,SE,142,0.0,0.0,32,0.00,,---,0.00,VWS V14.00,2013-03-07 17:34:00,
2013-03-07 12:39:00,49.2,20.6,30.82,West,262,0.0,0.0,32,0.00,,---,0.00,VWS V14.00,2013-03-07 17:39:00,
2013-03-07 12:45:00,49.2,19.9,30.85,South,176,0.0,0.0,31,0.00,,---,0.00,VWS V14.00,2013-03-07 17:45:00,
2013-03-07 12:50:00,48.8,19.5,30.85,NW,305,4.0,4.9,31,0.00,,---,0.00,VWS V14.00,2013-03-07 17:50:00,
2013-03-07 12:55:00,48.8,21.0,30.85,NW,308,0.0,3.6,33,0.00,,---,0.00,VWS V14.00,2013-03-07 17:55:00,
2013-03-07 13:00:00,49.4,20.8,30.82,SSE,147,0.0,3.6,32,0.00,,---,0.00,VWS V14.00,2013-03-07 18:00:00,
2013-03-07 13:05:00,50.1,21.4,30.82,SSE,159,0.0,0.0,32,0.00,,---,0.00,VWS V14.00,2013-03-07 18:05:00,
2013-03-07 13:11:00,50.4,20.2,30.82,SE,128,0.0,0.0,30,0.00,,---,0.00,VWS V14.00,2013-03-07 18:11:00,
2013-03-07 13:16:00,50.4,20.2,30.82,SE,140,0.0,4.0,30,0.00,,---,0.00,VWS V14.00,2013-03-07 18:16:00,
2013-03-07 13:21:00,50.6,20.3,30.82,SE,144,0.0,0.0,30,0.00,,---,0.00,VWS V14.00,2013-03-07 18:21:00,
2013-03-07 13:26:00,50.8,19.7,30.82,SE,143,0.0,0.0,29,0.00,,---,0.00,VWS V14.00,2013-03-07 18:26:00,
2013-03-07 13:32:00,51.2,20.0,30.82,SSE,149,0.0,0.0,29,0.00,,---,0.00,VWS V14.00,2013-03-07 18:32:00,
2013-03-07 13:37:00,51.3,20.2,30.82,SE,139,0.0,0.0,29,0.00,,---,0.00,VWS V14.00,2013-03-07 18:37:00,
2013-03-07 13:42:00,51.5,20.3,30.79,SE,139,0.0,0.0,29,0.00,,---,0.00,VWS V14.00,2013-03-07 18:42:00,
2013-03-07 13:47:00,51.9,20.6,30.79,SE,135,2.2,3.1,29,0.00,,---,0.00,VWS V14.00,2013-03-07 18:47:00,
2013-03-07 13:52:00,52.1,20.8,30.79,SE,139,0.0,0.0,29,0.00,,---,0.00,VWS V14.00,2013-03-07 18:52:00,
2013-03-07 13:57:00,52.1,20.0,30.79,SE,124,0.0,0.0,28,0.00,,---,0.00,VWS V14.00,2013-03-07 18:57:00,
2013-03-07 14:03:00,52.4,20.3,30.79,SE,124,0.0,0.0,28,0.00,,---,0.00,VWS V14.00,2013-03-07 19:03:00,
2013-03-07 14:08:00,52.2,20.1,30.79,SE,124,0.0,0.0,28,0.00,,---,0.00,VWS V14.00,2013-03-07 19:08:00,
2013-03-07 14:13:00,52.6,20.4,30.79,SE,124,0.0,0.0,28,0.00,,---,0.00,VWS V14.00,2013-03-07 19:13:00,
2013-03-07 14:18:00,53.0,20.8,30.79,SSE,153,0.0,2.7,28,0.00,,---,0.00,VWS V14.00,2013-03-07 19:18:00,
2013-03-07 14:24:00,53.1,20.0,30.79,SSE,151,0.0,0.0,27,0.00,,---,0.00,VWS V14.00,2013-03-07 19:24:00,
2013-03-07 14:29:00,53.0,20.8,30.76,SE,144,0.0,2.2,28,0.00,,---,0.00,VWS V14.00,2013-03-07 19:29:00,
2013-03-07 14:35:00,53.0,20.8,30.76,SE,140,0.0,3.1,28,0.00,,---,0.00,VWS V14.00,2013-03-07 19:35:00,
2013-03-07 14:40:00,53.1,20.9,30.76,SE,140,0.0,3.1,28,0.00,,---,0.00,VWS V14.00,2013-03-07 19:40:00,
2013-03-07 14:45:00,53.0,20.8,30.76,SE,140,0.0,0.0,28,0.00,,---,0.00,VWS V14.00,2013-03-07 19:45:00,
2013-03-07 14:50:00,52.8,20.6,30.76,SE,140,0.0,0.0,28,0.00,,---,0.00,VWS V14.00,2013-03-07 19:50:00,
2013-03-07 14:55:00,52.6,20.4,30.76,SE,140,0.0,0.0,28,0.00,,---,0.00,VWS V14.00,2013-03-07 19:55:00,
2013-03-07 15:00:00,53.0,20.8,30.76,SE,140,0.0,0.0,28,0.00,,---,0.00,VWS V14.00,2013-03-07 20:00:00,
2013-03-07 15:06:00,52.8,20.6,30.76,SSE,148,0.0,4.0,28,0.00,,---,0.00,VWS V14.00,2013-03-07 20:06:00,
2013-03-07 15:11:00,53.1,20.9,30.76,SE,144,0.0,0.0,28,0.00,,---,0.00,VWS V14.00,2013-03-07 20:11:00,
2013-03-07 15:16:00,53.3,21.1,30.76,SE,144,0.0,0.0,28,0.00,,---,0.00,VWS V14.00,2013-03-07 20:16:00,
2013-03-07 15:21:00,53.5,21.2,30.76,SE,144,0.0,0.0,28,0.00,,---,0.00,VWS V14.00,2013-03-07 20:21:00,
2013-03-07 15:26:00,53.7,20.5,30.76,SE,142,0.0,0.0,27,0.00,,---,0.00,VWS V14.00,2013-03-07 20:26:00,
2013-03-07 15:31:00,53.5,20.4,30.76,SE,138,0.0,0.0,27,0.00,,---,0.00,VWS V14.00,2013-03-07 20:31:00,
2013-03-07 15:36:00,53.1,20.0,30.76,SSE,156,0.0,0.0,27,0.00,,---,0.00,VWS V14.00,2013-03-07 20:36:00,
2013-03-07 15:42:00,53.3,21.1,30.76,SE,139,0.0,0.0,28,0.00,,---,0.00,VWS V14.00,2013-03-07 20:42:00,
2013-03-07 15:47:00,53.7,21.4,30.76,SE,140,0.0,2.7,28,0.00,,---,0.00,VWS V14.00,2013-03-07 20:47:00,
2013-03-07 15:52:00,53.7,20.5,30.76,SE,135,0.0,0.0,27,0.00,,---,0.00,VWS V14.00,2013-03-07 20:52:00,
2013-03-07 15:57:00,53.9,21.5,30.76,SE,135,0.0,0.0,28,0.00,,---,0.00,VWS V14.00,2013-03-07 20:57:00,
2013-03-07 16:02:00,53.7,20.5,30.76,SE,135,0.0,0.0,27,0.00,,---,0.00,VWS V14.00,2013-03-07 21:02:00,
2013-03-07 16:08:00,53.9,20.7,30.76,SE,135,0.0,2.2,27,0.00,,---,0.00,VWS V14.00,2013-03-07 21:08:00,
2013-03-07 16:13:00,54.0,21.7,30.76,SSE,147,0.0,0.0,28,0.00,,---,0.00,VWS V14.00,2013-03-07 21:13:00,
2013-03-07 16:18:00,53.9,21.5,30.76,SSE,147,0.0,0.0,28,0.00,,---,0.00,VWS V14.00,2013-03-07 21:18:00,
2013-03-07 16:23:00,53.7,21.4,30.76,SSE,147,0.0,0.0,28,0.00,,---,0.00,VWS V14.00,2013-03-07 21:23:00,
2013-03-07 16:28:00,53.7,21.4,30.76,SSE,147,0.0,0.0,28,0.00,,---,0.00,VWS V14.00,2013-03-07 21:28:00,
2013-03-07 16:33:00,53.5,21.2,30.76,SE,135,0.0,2.7,28,0.00,,---,0.00,VWS V14.00,2013-03-07 21:33:00,
2013-03-07 16:38:00,53.7,21.4,30.76,SE,138,3.6,4.0,28,0.00,,---,0.00,VWS V14.00,2013-03-07 21:38:00,
2013-03-07 16:43:00,53.5,20.4,30.73,SE,139,0.0,0.0,27,0.00,,---,0.00,VWS V14.00,2013-03-07 21:43:00,
2013-03-07 16:49:00,53.5,21.2,30.73,SE,139,0.0,0.0,28,0.00,,---,0.00,VWS V14.00,2013-03-07 21:49:00,
2013-03-07 16:54:00,53.7,21.4,30.73,SSE,147,0.0,0.0,28,0.00,,---,0.00,VWS V14.00,2013-03-07 21:54:00,
2013-03-07 16:59:00,53.5,20.4,30.73,SE,128,0.0,2.2,27,0.00,,---,0.00,VWS V14.00,2013-03-07 21:59:00,
2013-03-07 17:04:00,53.1,20.9,30.73,ESE,116,0.0,0.0,28,0.00,,---,0.00,VWS V14.00,2013-03-07 22:04:00,
2013-03-07 17:09:00,53.1,20.9,30.73,SE,139,0.0,2.7,28,0.00,,---,0.00,VWS V14.00,2013-03-07 22:09:00,
2013-03-07 17:15:00,53.0,20.8,30.73,ESE,120,0.0,3.1,28,0.00,,---,0.00,VWS V14.00,2013-03-07 22:15:00,
2013-03-07 17:20:00,53.0,20.8,30.73,ESE,120,0.0,0.0,28,0.00,,---,0.00,VWS V14.00,2013-03-07 22:20:00,
2013-03-07 17:25:00,52.8,20.6,30.73,SE,128,0.0,0.0,28,0.00,,---,0.00,VWS V14.00,2013-03-07 22:25:00,
2013-03-07 17:30:00,52.6,20.4,30.73,SE,128,0.0,0.0,28,0.00,,---,0.00,VWS V14.00,2013-03-07 22:30:00,
2013-03-07 17:35:00,52.4,21.1,30.73,SSE,151,0.0,0.0,29,0.00,,---,0.00,VWS V14.00,2013-03-07 22:35:00,
2013-03-07 17:41:00,52.2,21.0,30.73,SE,146,0.0,0.0,29,0.00,,---,0.00,VWS V14.00,2013-03-07 22:41:00,
2013-03-07 17:46:00,51.7,20.5,30.73,SSE,151,0.0,0.0,29,0.00,,---,0.00,VWS V14.00,2013-03-07 22:46:00,
2013-03-07 17:52:00,51.3,20.2,30.73,SSE,150,0.0,0.0,29,0.00,,---,0.00,VWS V14.00,2013-03-07 22:52:00,
2013-03-07 17:57:00,51.2,20.8,30.73,SE,144,0.0,0.0,30,0.00,,---,0.00,VWS V14.00,2013-03-07 22:57:00,
2013-03-07 18:02:00,50.8,20.5,30.73,WNW,288,2.2,2.7,30,0.00,,---,0.00,VWS V14.00,2013-03-07 23:02:00,
2013-03-07 18:07:00,50.6,21.1,30.73,West,276,0.0,2.7,31,0.00,,---,0.00,VWS V14.00,2013-03-07 23:07:00,
2013-03-07 18:12:00,50.3,20.8,30.73,WSW,253,0.0,0.0,31,0.00,,---,0.00,VWS V14.00,2013-03-07 23:12:00,
2013-03-07 18:17:00,50.1,21.4,30.73,South,177,0.0,0.0,32,0.00,,---,0.00,VWS V14.00,2013-03-07 23:17:00,
2013-03-07 18:22:00,49.7,21.1,30.73,SSE,165,0.0,0.0,32,0.00,,---,0.00,VWS V14.00,2013-03-07 23:22:00,
2013-03-07 18:27:00,49.5,21.6,30.73,SSW,195,0.0,0.0,33,0.00,,---,0.00,VWS V14.00,2013-03-07 23:27:00,
2013-03-07 18:33:00,49.4,22.2,30.73,SW,236,0.0,0.0,34,0.00,,---,0.00,VWS V14.00,2013-03-07 23:33:00,
2013-03-07 18:38:00,48.8,22.4,30.73,South,191,0.0,0.0,35,0.00,,---,0.00,VWS V14.00,2013-03-07 23:38:00,
2013-03-07 19:05:00,47.2,22.3,30.73,SSE,157,0.0,0.0,37,0.00,,---,0.00,VWS V14.00,2013-03-08 00:05:00,
2013-03-07 19:11:00,46.7,22.4,30.73,SSE,157,0.0,0.0,38,0.00,,---,0.00,VWS V14.00,2013-03-08 00:11:00,
2013-03-07 19:16:00,46.3,22.1,30.73,SSE,157,0.0,0.0,38,0.00,,---,0.00,VWS V14.00,2013-03-08 00:16:00,
2013-03-07 19:21:00,46.1,21.9,30.73,SSE,157,0.0,0.0,38,0.00,,---,0.00,VWS V14.00,2013-03-08 00:21:00,
2013-03-07 19:26:00,45.6,22.1,30.73,SSE,157,0.0,0.0,39,0.00,,---,0.00,VWS V14.00,2013-03-08 00:26:00,
2013-03-07 19:31:00,45.2,21.8,30.73,SSE,157,0.0,0.0,39,0.00,,---,0.00,VWS V14.00,2013-03-08 00:31:00,
2013-03-07 19:36:00,44.9,22.0,30.73,SSE,157,0.0,0.0,40,0.00,,---,0.00,VWS V14.00,2013-03-08 00:36:00,
2013-03-07 19:41:00,44.3,21.5,30.73,SSE,157,0.0,0.0,40,0.00,,---,0.00,VWS V14.00,2013-03-08 00:41:00,
2013-03-07 19:46:00,44.0,21.2,30.73,SSE,157,0.0,0.0,40,0.00,,---,0.00,VWS V14.00,2013-03-08 00:46:00,
2013-03-07 19:52:00,43.6,21.5,30.73,SSE,157,0.0,0.0,41,0.00,,---,0.00,VWS V14.00,2013-03-08 00:52:00,
2013-03-07 19:57:00,43.6,21.5,30.73,SSE,157,0.0,0.0,41,0.00,,---,0.00,VWS V14.00,2013-03-08 00:57:00,
2013-03-07 20:02:00,43.2,21.7,30.73,SSE,157,0.0,0.0,42,0.00,,---,0.00,VWS V14.00,2013-03-08 01:02:00,
2013-03-07 20:07:00,42.7,21.8,30.73,SSE,157,0.0,0.0,43,0.00,,---,0.00,VWS V14.00,2013-03-08 01:07:00,
2013-03-07 20:12:00,42.3,22.0,30.73,SSE,157,0.0,0.0,44,0.00,,---,0.00,VWS V14.00,2013-03-08 01:12:00,
2013-03-07 20:17:00,42.3,23.0,30.73,SSE,157,0.0,0.0,46,0.00,,---,0.00,VWS V14.00,2013-03-08 01:17:00,
2013-03-07 20:22:00,42.3,23.0,30.73,SSE,157,0.0,0.0,46,0.00,,---,0.00,VWS V14.00,2013-03-08 01:22:00,
2013-03-07 20:28:00,41.8,23.6,30.73,SSE,157,0.0,0.0,48,0.00,,---,0.00,VWS V14.00,2013-03-08 01:28:00,
2013-03-07 20:33:00,41.4,23.7,30.73,SSE,157,0.0,0.0,49,0.00,,---,0.00,VWS V14.00,2013-03-08 01:33:00,
2013-03-07 20:38:00,41.3,24.0,30.73,SSE,157,0.0,0.0,50,0.00,,---,0.00,VWS V14.00,2013-03-08 01:38:00,
2013-03-07 20:43:00,41.1,23.9,30.73,SSE,157,0.0,0.0,50,0.00,,---,0.00,VWS V14.00,2013-03-08 01:43:00,
2013-03-07 20:48:00,40.9,24.2,30.73,SSE,157,0.0,0.0,51,0.00,,---,0.00,VWS V14.00,2013-03-08 01:48:00,
2013-03-07 20:53:00,40.7,24.0,30.73,SSE,157,0.0,0.0,51,0.00,,---,0.00,VWS V14.00,2013-03-08 01:53:00,
2013-03-07 20:58:00,40.7,24.0,30.73,SSE,157,0.0,0.0,51,0.00,,---,0.00,VWS V14.00,2013-03-08 01:58:00,
2013-03-07 21:03:00,40.5,24.3,30.73,SSE,157,0.0,0.0,52,0.00,,---,0.00,VWS V14.00,2013-03-08 02:03:00,
2013-03-07 21:09:00,40.4,24.6,30.73,SSE,157,0.0,0.0,53,0.00,,---,0.00,VWS V14.00,2013-03-08 02:09:00,
2013-03-07 21:14:00,40.2,24.4,30.73,SSE,157,0.0,0.0,53,0.00,,---,0.00,VWS V14.00,2013-03-08 02:14:00,
2013-03-07 21:19:00,40.0,25.1,30.73,SSE,157,0.0,0.0,55,0.00,,---,0.00,VWS V14.00,2013-03-08 02:19:00,
2013-03-07 21:24:00,40.0,25.6,30.73,SSE,157,0.0,0.0,56,0.00,,---,0.00,VWS V14.00,2013-03-08 02:24:00,
2013-03-07 21:29:00,39.8,25.8,30.73,SSE,157,0.0,0.0,57,0.00,,---,0.00,VWS V14.00,2013-03-08 02:29:00,
2013-03-07 21:34:00,39.6,26.1,30.73,SSE,157,0.0,0.0,58,0.00,,---,0.00,VWS V14.00,2013-03-08 02:34:00,
2013-03-07 21:39:00,39.6,26.9,30.73,SSE,157,0.0,0.0,60,0.00,,---,0.00,VWS V14.00,2013-03-08 02:39:00,
2013-03-07 21:44:00,39.6,26.9,30.73,SSE,157,0.0,0.0,60,0.00,,---,0.00,VWS V14.00,2013-03-08 02:44:00,
2013-03-07 21:49:00,39.5,26.7,30.73,SSE,157,0.0,0.0,60,0.00,,---,0.00,VWS V14.00,2013-03-08 02:49:00,
2013-03-07 21:54:00,39.1,26.8,30.73,SSE,157,0.0,0.0,61,0.00,,---,0.00,VWS V14.00,2013-03-08 02:54:00,
2013-03-07 21:59:00,38.9,27.8,30.73,SSE,157,0.0,0.0,64,0.00,,---,0.00,VWS V14.00,2013-03-08 02:59:00,
2013-03-07 22:04:00,38.7,27.6,30.73,SSE,157,0.0,0.0,64,0.00,,---,0.00,VWS V14.00,2013-03-08 03:04:00,
2013-03-07 22:10:00,38.7,28.0,30.73,SSE,157,0.0,0.0,65,0.00,,---,0.00,VWS V14.00,2013-03-08 03:10:00,
2013-03-07 22:15:00,38.6,27.8,30.73,SSE,157,0.0,0.0,65,0.00,,---,0.00,VWS V14.00,2013-03-08 03:15:00,
2013-03-07 22:20:00,38.4,28.4,30.73,SSE,157,0.0,0.0,67,0.00,,---,0.00,VWS V14.00,2013-03-08 03:20:00,
2013-03-07 22:25:00,38.2,28.9,30.73,SSE,157,0.0,0.0,69,0.00,,---,0.00,VWS V14.00,2013-03-08 03:25:00,
2013-03-07 22:30:00,38.2,29.3,30.73,SSE,167,0.0,0.0,70,0.00,,---,0.00,VWS V14.00,2013-03-08 03:30:00,
2013-03-07 22:35:00,38.7,29.8,30.73,SSE,167,0.0,0.0,70,0.00,,---,0.00,VWS V14.00,2013-03-08 03:35:00,
2013-03-07 22:41:00,38.9,29.6,30.73,SSE,167,0.0,0.0,69,0.00,,---,0.00,VWS V14.00,2013-03-08 03:41:00,
2013-03-07 22:46:00,38.9,29.3,30.73,WSW,250,0.0,0.0,68,0.00,,---,0.00,VWS V14.00,2013-03-08 03:46:00,
2013-03-07 22:51:00,39.1,29.5,30.73,West,277,0.0,0.0,68,0.00,,---,0.00,VWS V14.00,2013-03-08 03:51:00,
2013-03-07 22:56:00,38.9,28.9,30.73,WNW,295,0.0,0.0,67,0.00,,---,0.00,VWS V14.00,2013-03-08 03:56:00,
2013-03-07 23:01:00,39.3,28.9,30.73,WNW,302,2.2,3.6,66,0.00,,---,0.00,VWS V14.00,2013-03-08 04:01:00,
2013-03-07 23:06:00,39.3,28.5,30.73,WNW,293,0.0,3.6,65,0.00,,---,0.00,VWS V14.00,2013-03-08 04:06:00,
2013-03-07 23:12:00,39.1,28.7,30.73,WNW,296,0.0,0.0,66,0.00,,---,0.00,VWS V14.00,2013-03-08 04:12:00,
2013-03-07 23:17:00,38.7,28.4,30.73,WNW,296,0.0,0.0,66,0.00,,---,0.00,VWS V14.00,2013-03-08 04:17:00,
2013-03-07 23:22:00,38.4,28.4,30.73,WNW,296,0.0,0.0,67,0.00,,---,0.00,VWS V14.00,2013-03-08 04:22:00,
2013-03-07 23:27:00,38.2,28.2,30.73,WNW,296,0.0,0.0,67,0.00,,---,0.00,VWS V14.00,2013-03-08 04:27:00,
2013-03-07 23:32:00,37.8,28.2,30.76,WNW,296,0.0,0.0,68,0.00,,---,0.00,VWS V14.00,2013-03-08 04:32:00,
2013-03-07 23:37:00,37.5,28.6,30.76,WNW,296,0.0,0.0,70,0.00,,---,0.00,VWS V14.00,2013-03-08 04:37:00,
2013-03-07 23:42:00,37.1,28.9,30.73,WNW,296,0.0,0.0,72,0.00,,---,0.00,VWS V14.00,2013-03-08 04:42:00,
2013-03-07 23:47:00,37.1,29.3,30.73,WNW,296,0.0,0.0,73,0.00,,---,0.00,VWS V14.00,2013-03-08 04:47:00,
2013-03-07 23:53:00,36.9,29.1,30.73,WNW,296,0.0,0.0,73,0.00,,---,0.00,VWS V14.00,2013-03-08 04:53:00,
2013-03-07 23:58:00,36.9,29.4,30.73,WNW,296,0.0,0.0,74,0.00,,---,0.00,VWS V14.00,2013-03-08 04:58:00,